Weather History for KPUB - January, 2013

Change the Weather History Date:

Sunday, January 13, 2013

  Actual Average Record
Temperature  
Mean Temperature 12 °F 30 °F  
Max Temperature 21 °F 47 °F 73 °F (1983)
Min Temperature 3 °F 14 °F -24 °F (1963)
Degree Days  
Heating Degree Days 53 35  
Month to date heating degree days 524 455  
Since 1 July heating degree days 2746 2818  
Cooling Degree Days 0 0  
Month to date cooling degree days 0 0  
Year to date cooling degree days 0 0  
Moisture  
Dew Point 1 °F    
Average Humidity 59    
Maximum Humidity 72    
Minimum Humidity 45    
Precipitation  
Precipitation T in 0.01 in 0.28 in (1918)
Month to date precipitation 0.01 0.14  
Year to date precipitation 0.01 0.14  
Snow  
Snow 0.10 in 0.20 in 3.70 in (1940)
Month to date snowfall 0.1 2.6  
Since 1 July snowfall 5.7 14.1  
Snow Depth 0.00 in    
Sea Level Pressure  
Sea Level Pressure 30.19 in    
Wind  
Wind Speed 5 mph (ESE)    
Max Wind Speed 13 mph    
Max Gust Speed 18 mph    
Visibility 9 miles    
Events Snow    
T = Trace of Precipitation, MM = Missing Value Source: NWS Daily Summary

Daily Weather History Graph

Daily Weather History Graph

Search for Another Location

Airport or City:

Trip Planner

Search our weather history database for the weather conditions in past years. The results will help you decide how hot, cold, wet, or windy it might be!

Date:

Astronomy

Jan. 13, 2013 Rise Set
Actual Time 7:14 AM MST 4:59 PM MST
Civil Twilight 6:45 AM MST 5:28 PM MST
Nautical Twilight 6:12 AM MST 6:01 PM MST
Astronomical Twilight 5:40 AM MST 6:33 PM MST
Moon 8:16 AM MST (1/13) 7:38 PM MST (1/13)
Length of Visible Light 10h 43m
Length of Day
9h 45m
Waxing Crescent, 5% of the Moon is Illuminated
Jan 13
Waxing Crescent
Jan 18
First Quarter
Jan 26
Full
Feb 3
Last Quarter
Feb 10
New

Hourly Weather History & Observations

Time (MST) Temp. Windchill Dew Point Humidity Pressure Visibility Wind Dir Wind Speed Gust Speed Precip Events Conditions
12:53 AM 10.9 °F - -2.9 °F 54% 30.17 in 10.0 mi Calm Calm - N/A   Overcast
1:53 AM 10.9 °F 4.7 °F -2.0 °F 56% 30.18 in 10.0 mi SSW 3.5 mph - N/A   Overcast
2:53 AM 10.9 °F 1.4 °F -2.0 °F 56% 30.18 in 10.0 mi South 5.8 mph - N/A   Overcast
3:53 AM 10.9 °F 1.4 °F -2.0 °F 56% 30.17 in 10.0 mi SSE 5.8 mph - N/A   Overcast
4:10 AM 10.4 °F 0.8 °F -2.2 °F 57% 30.00 in 10.0 mi SSE 5.8 mph - N/A   Overcast
4:53 AM 10.0 °F -0.9 °F -2.0 °F 58% 30.17 in 10.0 mi SE 6.9 mph - N/A   Overcast
5:53 AM 10.0 °F 0.4 °F -0.0 °F 64% 30.19 in 10.0 mi SE 5.8 mph - N/A   Overcast
6:53 AM 8.1 °F -3.2 °F -0.9 °F 67% 30.23 in 10.0 mi ESE 6.9 mph - N/A   Mostly Cloudy
7:04 AM 6.8 °F -2.0 °F -2.2 °F 67% 30.03 in 10.0 mi ESE 4.6 mph - N/A   Scattered Clouds
7:53 AM 3.9 °F - -4.0 °F 70% 30.27 in 10.0 mi Calm Calm - N/A   Clear
8:53 AM 10.0 °F - -0.0 °F 64% 30.27 in 10.0 mi Calm Calm - N/A   Clear
9:53 AM 12.0 °F 4.1 °F 1.9 °F 64% 30.26 in 10.0 mi East 4.6 mph - N/A   Clear
10:28 AM 12.2 °F 4.3 °F 1.4 °F 62% 30.06 in 10.0 mi South 4.6 mph - N/A   Mostly Cloudy
10:53 AM 14.0 °F 6.5 °F 3.9 °F 64% 30.24 in 10.0 mi ESE 4.6 mph - N/A   Scattered Clouds
11:53 AM 17.1 °F 11.7 °F 3.0 °F 54% 30.19 in 10.0 mi ESE 3.5 mph - N/A   Clear
12:53 PM 19.0 °F 8.2 °F 3.0 °F 50% 30.16 in 10.0 mi ESE 9.2 mph - N/A   Clear
1:53 PM 19.9 °F 11.1 °F 1.9 °F 46% 30.14 in 10.0 mi ESE 6.9 mph - N/A   Clear
2:53 PM 19.9 °F 9.3 °F 1.9 °F 46% 30.15 in 10.0 mi SE 9.2 mph 18.4 mph N/A   Clear
3:53 PM 19.9 °F 10.1 °F 1.0 °F 44% 30.17 in 10.0 mi SE 8.1 mph - N/A   Clear
4:53 PM 18.0 °F 7.7 °F -0.0 °F 45% 30.20 in 10.0 mi East 8.1 mph - N/A   Clear
5:53 PM 12.0 °F 0.5 °F -2.9 °F 51% 30.24 in 10.0 mi East 8.1 mph - N/A   Scattered Clouds
6:53 PM 14.0 °F 2.0 °F -0.9 °F 52% 30.27 in 10.0 mi ENE 9.2 mph - N/A   Overcast
7:53 PM 12.9 °F 2.6 °F -0.9 °F 54% 30.30 in 10.0 mi ENE 6.9 mph - N/A   Overcast
8:53 PM 10.9 °F - -0.9 °F 59% 30.29 in 10.0 mi Calm Calm - N/A   Overcast
9:53 PM 14.0 °F 5.1 °F 1.0 °F 56% 30.28 in 10.0 mi East 5.8 mph - N/A   Overcast
10:53 PM 12.9 °F - 5.0 °F 71% 30.27 in 5.0 mi Calm Calm - 0.00 in Snow Light Snow
11:27 PM 12.2 °F - 6.8 °F 79% 30.09 in 2.5 mi Calm Calm - 0.00 in Snow Light Snow
11:39 PM 12.2 °F - 6.8 °F 79% 30.09 in 3.0 mi Calm Calm - N/A Snow Light Snow
11:49 PM 12.2 °F 4.3 °F 6.8 °F 79% 30.09 in 2.5 mi East 4.6 mph - 0.00 in Snow Light Snow
11:53 PM 12.9 °F - 7.0 °F 77% 30.27 in 2.5 mi Calm Calm - 0.00 in Snow Light Snow